Tracking 22780 objects as of 11-Apr-2021
HD Live streaming from Space Station
objects crossing your sky now

SL-4 DEB


SL-4 DEB is no longer on orbit


NORAD ID: 40639
Int'l Code: 2015-024W
Perigee: N/A
Apogee: N/A
Inclination: N/A
Period: N/A
Semi major axis: N/A
RCS: N/A
Launch date: April 28, 2015
Source: Commonwealth of Independent States (former USSR) (CIS)
Launch site: TYURATAM MISSILE AND SPACE COMPLEX (TTMTR)
Decay date: 2015-04-29

Note: This is SATELLITE DEBRIS
aabbcc
Your satellite tracking list
Your tracking list is empty




NASA's NSSDC Master Catalog

Two Line Element Set (TLE):
1 40639U 15024W   15119.59954291  .31828762  12436-4  83385-3 0  9992
2 40639 051.6314 326.0091 0019249 102.0681 357.5100 16.43754963    18
Source of the keplerian elements: AFSPC